Northeast Philadelphia, PA

3:37 PM EDT on April 27, 2017 (GMT -0400)
Northeast Philadelphia

Weather History for KPNE - November, 2011

Change the Weather History Date:

Friday, November 4, 2011

  Actual Average Record
Temperature  
Mean Temperature 48 °F -  
Max Temperature 55 °F 56 °F 77 °F (2015)
Min Temperature 41 °F 38 °F 32 °F (2006)
Degree Days  
Heating Degree Days 17    
Moisture  
Dew Point 32 °F    
Average Humidity 57    
Maximum Humidity 93    
Minimum Humidity 28    
Precipitation  
Precipitation 0.00 in - - ()
Sea Level Pressure  
Sea Level Pressure 30.06 in    
Wind  
Wind Speed 8 mph (North)    
Max Wind Speed 23 mph    
Max Gust Speed 30 mph    
Visibility 9 miles    
Events      
Averages and records for this station are not official NWS values.
T = Trace of Precipitation, MM = Missing Value Source: NWS Daily Summary

Daily Weather History Graph

Daily Weather History Graph

Search for Another Location

Airport or City:

Trip Planner

Search our weather history database for the weather conditions in past years. The results will help you decide how hot, cold, wet, or windy it might be!

Date:

Astronomy

Nov. 04, 2011 Rise Set
Actual Time 7:32 AM EDT 5:54 PM EDT
Civil Twilight 7:04 AM EDT 6:22 PM EDT
Nautical Twilight 6:31 AM EDT 6:54 PM EDT
Astronomical Twilight 6:00 AM EDT 7:26 PM EDT
Moon 2:44 PM EDT (11/4) 1:41 AM EDT (11/4)
Length of Visible Light 11h 18m
Length of Day
10h 22m
Waxing Gibbous, 69% of the Moon is Illuminated
Nov 4
Waxing Gibbous
Nov 10
Full
Nov 18
Last Quarter
Nov 25
New
Dec 2
First Quarter

Hourly Weather History & Observations

Time (EDT) Temp. Windchill Dew Point Humidity Pressure Visibility Wind Dir Wind Speed Gust Speed Precip Events Conditions
12:54 AM 41.0 °F - 39.2 °F 93% 29.94 in 4.0 mi Calm Calm - N/A   Clear
1:54 AM 41.0 °F - 39.0 °F 93% 29.96 in 6.0 mi Calm Calm - N/A   Clear
2:54 AM 43.0 °F - 39.9 °F 89% 29.94 in 5.0 mi Calm Calm - N/A   Clear
3:54 AM 44.6 °F 43.1 °F 42.8 °F 93% 29.96 in 7.0 mi SW 3.5 mph - N/A   Clear
4:54 AM 44.1 °F - 42.1 °F 93% 29.93 in 6.0 mi Calm Calm - N/A   Clear
5:54 AM 48.0 °F - 43.0 °F 83% 29.93 in 9.0 mi North 11.5 mph - N/A   Clear
6:54 AM 50.0 °F - 42.1 °F 74% 29.94 in 10.0 mi North 12.7 mph - N/A   Clear
7:54 AM 50.0 °F - 42.1 °F 74% 29.98 in 10.0 mi North 12.7 mph - N/A   Clear
8:54 AM 51.1 °F - 41.0 °F 68% 30.01 in 10.0 mi North 11.5 mph - N/A   Clear
9:54 AM 51.1 °F - 39.9 °F 66% 30.02 in 10.0 mi North 15.0 mph - N/A   Clear
10:54 AM 51.1 °F - 37.0 °F 59% 30.04 in 10.0 mi NNE 16.1 mph - N/A   Clear
11:54 AM 53.1 °F - 35.1 °F 50% 30.06 in 10.0 mi NNE 11.5 mph - N/A   Clear
12:54 PM 55.0 °F - 32.0 °F 42% 30.06 in 10.0 mi North 13.8 mph - N/A   Clear
1:54 PM 55.0 °F - 28.0 °F 35% 30.04 in 10.0 mi North 10.4 mph 23.0 mph N/A   Clear
2:54 PM 55.9 °F - 23.0 °F 28% 30.02 in 10.0 mi NNE 20.7 mph 28.8 mph N/A   Clear
3:54 PM 55.0 °F - 21.9 °F 28% 30.04 in 10.0 mi NNE 23.0 mph 29.9 mph N/A   Clear
4:54 PM 53.1 °F - 21.9 °F 30% 30.10 in 10.0 mi NNE 12.7 mph 24.2 mph N/A   Clear
5:54 PM 50.0 °F - 21.9 °F 33% 30.11 in 10.0 mi North 8.1 mph - N/A   Clear
6:54 PM 48.9 °F - 21.0 °F 33% 30.14 in 10.0 mi North 10.4 mph - N/A   Clear
7:54 PM 46.9 °F - 21.9 °F 37% 30.18 in 10.0 mi North 12.7 mph - N/A   Clear
8:54 PM 46.9 °F - 21.0 °F 36% 30.20 in 10.0 mi North 15.0 mph - N/A   Clear
9:54 PM 45.0 °F 38.5 °F 21.0 °F 39% 30.22 in 10.0 mi North 13.8 mph - N/A   Clear
10:54 PM 44.1 °F 35.2 °F 21.9 °F 42% 30.24 in 10.0 mi North 23.0 mph 28.8 mph N/A   Clear
11:54 PM 42.1 °F 34.2 °F 21.9 °F 45% 30.27 in 10.0 mi North 16.1 mph - N/A   Clear